星链-36663(STARLINK-36663)

导读

STARLINK-36663是美国于2026年2月22日发射的星链卫星,隶属于SpaceX公司的星链星座项目。星链项目旨在构建全球卫星互联网星座,为全球尤其是偏远地区提供高速宽带网络服务,该卫星加入后将进一步扩充星链星座的规模,提升网络覆盖能力与服务稳定性。

Basic Information
目录编号:
67919
目录名称:
STARLINK-36663
国际标识:
2026-036R
轨道中心:
EARTH
卫星名称:
星链-36663
卫星全名:
星链-36663(STARLINK-36663)
卫星状态:
在轨 (已飞行194 天)
发射日期:
2026-02-22 UTC
国别 :
美国 (US)
星等 :
--
Orbit Information
数据来源 国际轨道数据 AOE轨道数据
星历时间 2026-09-04T13:49:48+0800
7小时前
查看轨道信息
2026-08-29T07:00:00+0800
6天前
查看轨道信息
半长轴 6861.169km 6861.059km
偏心率 0.0001347 0.0002528
轨道倾角 43.002° 43.002°
近地点辐角 274.170° 268.274°
升交点赤经 316.523° 352.019°
平近点角 85.900° 50.593°
近地点 482.107km 481.187km
远地点 483.957km 484.657km
周期 94.266分钟 94.264分钟
每日圈数 15.275858 15.276226
Detailed Information
固有亮度:
5
最大亮度:
2.5
卫星平台:
Starlink V1.0
覆盖范围:
全球
运营商:
太空探索技术公司
运营商所在国:
美国
制造商(研发单位):
太空探索技术公司
制造商所在国:
美国
使用方式:
暂无
Satellite Introduction
Starlink 计划是 SpaceX 推出的全球卫星互联网项目,通过发射低轨道卫星,为全球尤其是偏远地区提供高速、低延迟的互联网服务。自 2019 年起,Starlink 已部署数千颗卫星,旨在缩小全球数字鸿沟,推动互联网普及。该项目还为军事、航空等行业提供通信支持,带来广泛经济效益。
2D Orbit Map
3D Orbit Map
Orbit Altitude Analysis Chart
Orbit Inclination Analysis Chart
Orbit Comprehensive Analysis Chart
View Comprehensive Chart
Conjunction Data List
Event ID Objects TCA Miss Dist (km) Collision Risk Probability Collision Risk Index (CRI) Action
CDM_260905-141705-934206-791921
2026-09-05T
14:17:40+0000
0.376 km
远距离
2.077633E-4 高风险 0.81
CDM_260906-174006-306806-791921
2026-09-06T
17:40:38+0000
0.640 km
远距离
7.285156E-5 中风险 0.72
CDM_260905-165405-549406-791921
2026-09-05T
16:54:43+0000
0.753 km
远距离
4.394311E-5 中风险 0.68
CDM_260905-225505-934206-791921
2026-09-05T
22:55:31+0000
0.689 km
远距离
4.367959E-5 中风险 0.68
CDM_260906-061505-549406-791921
2026-09-06T
06:15:02+0000
0.924 km
远距离
2.236514E-5 中风险 0.62
CDM_260905-152005-549406-791921
2026-09-05T
15:20:34+0000
1.135 km
极远距离
1.100978E-5 中风险 0.56
CDM_260905-183405-724906-791921
2026-09-05T
18:34:33+0000
1.499 km
极远距离
5.014276E-6 低风险 0.49
CDM_260906-160606-306806-791921
2026-09-06T
16:06:28+0000
1.475 km
极远距离
4.608239E-6 低风险 0.48
CDM_260906-002905-934206-791921
2026-09-06T
00:29:40+0000
1.394 km
极远距离
4.11924E-6 低风险 0.47
CDM_260905-200805-724906-791921
2026-09-05T
20:08:42+0000
1.994 km
极远距离
2.197406E-6 低风险 0.42